TXG606 MDSD-KMIA

Flight info

Callsign TXG606
Flight time 1h 49m
Altitude 36000
Route MALVN2L MALVN Y261 MADIZ VIICE2
Aircraft B738/M-SDE2E3FGHIRWXY/LB1

Departure

Time 2026-05-08 12:04
Airport Las Américas International Airport (MDSD)

Arrival

Time 2026-05-08 13:54
Airport Miami International Airport (KMIA)
Time Latitude Longitude Altitude Speed Heading
2026-05-08 11:42 18.43721 -69.67722 67 ft 0 kts 249°
2026-05-08 11:54 18.43725 -69.67709 64 ft 4 kts 249°
2026-05-08 11:54 18.43734 -69.67685 63 ft 3 kts 249°
2026-05-08 11:54 18.43746 -69.67664 63 ft 4 kts 203°
2026-05-08 11:54 18.43770 -69.67664 59 ft 4 kts 160°
2026-05-08 11:55 18.43779 -69.67668 60 ft 1 kts 160°
2026-05-08 11:55 18.43780 -69.67668 60 ft 0 kts 160°
2026-05-08 11:57 18.43774 -69.67665 61 ft 4 kts 159°
2026-05-08 11:57 18.43708 -69.67640 62 ft 15 kts 159°
2026-05-08 11:57 18.43597 -69.67596 64 ft 19 kts 159°
2026-05-08 11:58 18.43465 -69.67544 68 ft 21 kts 158°
2026-05-08 11:58 18.43402 -69.67474 67 ft 4 kts 81°
2026-05-08 11:58 18.43431 -69.67443 63 ft 10 kts 40°
2026-05-08 11:59 18.43534 -69.67328 63 ft 6 kts 80°
2026-05-08 11:59 18.43516 -69.67289 59 ft 7 kts 140°
2026-05-08 11:59 18.43468 -69.67265 69 ft 9 kts 160°
2026-05-08 11:59 18.43402 -69.67240 69 ft 11 kts 160°
2026-05-08 12:00 18.43320 -69.67208 70 ft 14 kts 159°
2026-05-08 12:00 18.43223 -69.67170 63 ft 16 kts 159°
2026-05-08 12:00 18.43110 -69.67131 67 ft 18 kts 162°
2026-05-08 12:00 18.42981 -69.67088 61 ft 20 kts 162°
2026-05-08 12:01 18.42839 -69.67038 67 ft 23 kts 161°
2026-05-08 12:01 18.42683 -69.66981 60 ft 25 kts 160°
2026-05-08 12:01 18.42516 -69.66918 69 ft 26 kts 160°
2026-05-08 12:01 18.42338 -69.66850 69 ft 28 kts 160°
2026-05-08 12:02 18.42152 -69.66776 68 ft 29 kts 159°
2026-05-08 12:02 18.41958 -69.66709 67 ft 29 kts 173°
2026-05-08 12:02 18.41777 -69.66651 70 ft 26 kts 159°
2026-05-08 12:02 18.41646 -69.66551 65 ft 22 kts 127°
2026-05-08 12:03 18.41588 -69.66434 72 ft 15 kts 102°
2026-05-08 12:03 18.41598 -69.66400 70 ft 2 kts 23°
2026-05-08 12:03 18.41646 -69.66410 77 ft 27 kts 341°
2026-05-08 12:03 18.42161 -69.66595 74 ft 126 kts 341°
2026-05-08 12:04 18.43246 -69.66954 319 ft 187 kts 344°
2026-05-08 12:04 18.44572 -69.67356 1251 ft 208 kts 346°
2026-05-08 12:04 18.46011 -69.67793 2268 ft 223 kts 347°
2026-05-08 12:04 18.47505 -69.68226 3469 ft 217 kts 347°
2026-05-08 12:05 18.48430 -69.68552 4198 ft 211 kts 340°
2026-05-08 12:05 18.49830 -69.69223 4723 ft 231 kts 330°
2026-05-08 12:05 18.51136 -69.70399 5042 ft 264 kts 318°
2026-05-08 12:05 18.52522 -69.71781 5725 ft 279 kts 318°
2026-05-08 12:06 18.53943 -69.73202 6669 ft 283 kts 318°
2026-05-08 12:06 18.55379 -69.74633 7583 ft 286 kts 318°
2026-05-08 12:06 18.56837 -69.76087 8493 ft 290 kts 318°
2026-05-08 12:06 18.58311 -69.77557 9396 ft 293 kts 318°
2026-05-08 12:07 18.59801 -69.79043 10260 ft 297 kts 318°
2026-05-08 12:07 18.61345 -69.80583 10649 ft 319 kts 317°
2026-05-08 12:07 18.63023 -69.82255 10833 ft 344 kts 317°
2026-05-08 12:07 18.64814 -69.84042 11137 ft 362 kts 317°
2026-05-08 12:08 18.66652 -69.85879 11784 ft 367 kts 317°
2026-05-08 12:08 18.68510 -69.87736 12540 ft 368 kts 317°
2026-05-08 12:08 18.70371 -69.89599 13282 ft 370 kts 317°
2026-05-08 12:08 18.72247 -69.91476 13975 ft 373 kts 318°
2026-05-08 12:09 18.74140 -69.93369 14583 ft 376 kts 318°
2026-05-08 12:09 18.76043 -69.95274 15192 ft 379 kts 318°
2026-05-08 12:09 18.77966 -69.97199 15798 ft 382 kts 318°
2026-05-08 12:09 18.79900 -69.99135 16393 ft 385 kts 318°
2026-05-08 12:10 18.81853 -70.01090 16980 ft 388 kts 319°
2026-05-08 12:10 18.83817 -70.03058 17563 ft 391 kts 319°
2026-05-08 12:10 18.85794 -70.05040 18140 ft 393 kts 319°
2026-05-08 12:10 18.87761 -70.07012 18641 ft 396 kts 319°
2026-05-08 12:11 18.89790 -70.09046 19110 ft 399 kts 319°
2026-05-08 12:11 18.91814 -70.11077 19579 ft 402 kts 319°
2026-05-08 12:11 18.93821 -70.13091 20030 ft 405 kts 319°
2026-05-08 12:11 18.95872 -70.15149 20488 ft 408 kts 319°
2026-05-08 12:12 18.97931 -70.17218 20934 ft 410 kts 319°
2026-05-08 12:12 19.00002 -70.19299 21371 ft 413 kts 319°
2026-05-08 12:12 19.02098 -70.21405 21811 ft 415 kts 319°
2026-05-08 12:12 19.04194 -70.23512 22237 ft 417 kts 319°
2026-05-08 12:13 19.06305 -70.25636 22656 ft 420 kts 319°
2026-05-08 12:13 19.08427 -70.27771 23059 ft 422 kts 319°
2026-05-08 12:13 19.10563 -70.29921 23467 ft 424 kts 319°
2026-05-08 12:13 19.12703 -70.32077 23821 ft 426 kts 319°
2026-05-08 12:14 19.14856 -70.34245 24147 ft 428 kts 319°
2026-05-08 12:14 19.17012 -70.36418 24480 ft 430 kts 319°
2026-05-08 12:14 19.19181 -70.38605 24809 ft 432 kts 319°
2026-05-08 12:14 19.21364 -70.40806 25109 ft 434 kts 319°
2026-05-08 12:15 19.23551 -70.43012 25423 ft 436 kts 319°
2026-05-08 12:15 19.25749 -70.45231 25756 ft 437 kts 319°
2026-05-08 12:15 19.27958 -70.47461 26044 ft 439 kts 319°
2026-05-08 12:15 19.30178 -70.49704 26347 ft 441 kts 319°
2026-05-08 12:16 19.32399 -70.51949 26642 ft 443 kts 319°
2026-05-08 12:16 19.34603 -70.54178 26938 ft 445 kts 319°
2026-05-08 12:16 19.36849 -70.56449 27219 ft 447 kts 319°
2026-05-08 12:16 19.39105 -70.58731 27498 ft 449 kts 319°
2026-05-08 12:17 19.41411 -70.60966 27782 ft 450 kts 323°
2026-05-08 12:17 19.43896 -70.62972 28044 ft 450 kts 326°
2026-05-08 12:17 19.46437 -70.64930 28314 ft 452 kts 326°
2026-05-08 12:17 19.48998 -70.66878 28577 ft 454 kts 326°
2026-05-08 12:18 19.51571 -70.68837 28839 ft 455 kts 326°
2026-05-08 12:18 19.54144 -70.70807 29109 ft 457 kts 326°
2026-05-08 12:18 19.56720 -70.72792 29382 ft 458 kts 326°
2026-05-08 12:18 19.59299 -70.74789 29649 ft 460 kts 326°
2026-05-08 12:19 19.61881 -70.76795 29979 ft 459 kts 326°
2026-05-08 12:19 19.64451 -70.78796 30352 ft 457 kts 326°
2026-05-08 12:19 19.67018 -70.80796 30704 ft 456 kts 326°
2026-05-08 12:19 19.69563 -70.82780 31071 ft 454 kts 326°
2026-05-08 12:20 19.72108 -70.84763 31397 ft 453 kts 326°
2026-05-08 12:20 19.74646 -70.86742 31739 ft 452 kts 326°
2026-05-08 12:20 19.77174 -70.88713 32091 ft 451 kts 326°
2026-05-08 12:20 19.79698 -70.90682 32443 ft 450 kts 326°
2026-05-08 12:21 19.82216 -70.92646 32787 ft 449 kts 326°
2026-05-08 12:21 19.84725 -70.94605 33150 ft 447 kts 326°
2026-05-08 12:21 19.87232 -70.96563 33510 ft 446 kts 326°
2026-05-08 12:21 19.89696 -70.98488 33865 ft 445 kts 325°
2026-05-08 12:22 19.92184 -71.00432 34204 ft 444 kts 325°
2026-05-08 12:22 19.94673 -71.02378 34461 ft 444 kts 325°
2026-05-08 12:22 19.97162 -71.04325 34695 ft 444 kts 325°
2026-05-08 12:22 19.99648 -71.06270 34951 ft 444 kts 325°
2026-05-08 12:23 20.02136 -71.08218 35199 ft 444 kts 325°
2026-05-08 12:23 20.04623 -71.10165 35445 ft 444 kts 325°
2026-05-08 12:23 20.07119 -71.12120 35672 ft 445 kts 325°
2026-05-08 12:23 20.09612 -71.14074 35911 ft 444 kts 325°
2026-05-08 12:24 20.12106 -71.16030 36032 ft 447 kts 325°
2026-05-08 12:24 20.14617 -71.17999 36035 ft 448 kts 325°
2026-05-08 12:24 20.19624 -71.21930 36030 ft 445 kts 325°
2026-05-08 12:25 20.24585 -71.25828 36038 ft 442 kts 325°
2026-05-08 12:25 20.29522 -71.29710 36040 ft 440 kts 325°
2026-05-08 12:26 20.34441 -71.33581 36039 ft 440 kts 325°
2026-05-08 12:26 20.39356 -71.37457 36038 ft 440 kts 323°
2026-05-08 12:27 20.43600 -71.42113 36038 ft 444 kts 307°
2026-05-08 12:27 20.47046 -71.47601 36039 ft 446 kts 305°
2026-05-08 12:28 20.50470 -71.53149 36044 ft 448 kts 305°
2026-05-08 12:28 20.53925 -71.58691 36038 ft 449 kts 306°
2026-05-08 12:29 20.57409 -71.64244 36041 ft 451 kts 306°
2026-05-08 12:29 20.60905 -71.69808 36037 ft 451 kts 306°
2026-05-08 12:30 20.64403 -71.75380 36038 ft 452 kts 306°
2026-05-08 12:30 20.67878 -71.80922 36037 ft 452 kts 305°
2026-05-08 12:31 20.71376 -71.86508 36035 ft 452 kts 305°
2026-05-08 12:31 20.74867 -71.92088 36038 ft 451 kts 305°
2026-05-08 12:32 20.78352 -71.97664 36037 ft 451 kts 305°
2026-05-08 12:32 20.81827 -72.03230 36042 ft 450 kts 305°
2026-05-08 12:33 20.85299 -72.08796 36039 ft 450 kts 305°
2026-05-08 12:33 20.88747 -72.14328 36040 ft 449 kts 305°
2026-05-08 12:34 20.92211 -72.19892 36042 ft 449 kts 305°
2026-05-08 12:34 20.95674 -72.25460 36040 ft 449 kts 305°
2026-05-08 12:35 20.99132 -72.31026 36041 ft 449 kts 305°
2026-05-08 12:35 21.02589 -72.36595 36039 ft 449 kts 305°
2026-05-08 12:36 21.06045 -72.42169 36043 ft 449 kts 305°
2026-05-08 12:36 21.09503 -72.47751 36041 ft 450 kts 305°
2026-05-08 12:37 21.12963 -72.53342 36044 ft 450 kts 304°
2026-05-08 12:37 21.16400 -72.58901 36044 ft 450 kts 305°
2026-05-08 12:38 21.19860 -72.64503 36046 ft 451 kts 304°
2026-05-08 12:38 21.23316 -72.70107 36042 ft 451 kts 304°
2026-05-08 12:39 21.26775 -72.75724 36047 ft 451 kts 304°
2026-05-08 12:39 21.30235 -72.81348 36046 ft 451 kts 304°
2026-05-08 12:40 21.33686 -72.86963 36049 ft 451 kts 304°
2026-05-08 12:40 21.37114 -72.92546 36045 ft 451 kts 304°
2026-05-08 12:41 21.40559 -72.98163 36044 ft 450 kts 304°
2026-05-08 12:41 21.44001 -73.03781 36051 ft 450 kts 304°
2026-05-08 12:42 21.47447 -73.09410 36044 ft 450 kts 304°
2026-05-08 12:42 21.50886 -73.15033 36047 ft 450 kts 304°
2026-05-08 12:43 21.54323 -73.20660 36050 ft 450 kts 304°
2026-05-08 12:43 21.57750 -73.26274 36054 ft 450 kts 304°
2026-05-08 12:44 21.61184 -73.31908 36051 ft 449 kts 304°
2026-05-08 12:44 21.64588 -73.37496 36054 ft 449 kts 304°
2026-05-08 12:45 21.68008 -73.43119 36050 ft 449 kts 304°
2026-05-08 12:45 21.71426 -73.48742 36055 ft 449 kts 304°
2026-05-08 12:46 21.74841 -73.54367 36056 ft 449 kts 304°
2026-05-08 12:46 21.78257 -73.60000 36055 ft 449 kts 304°
2026-05-08 12:47 21.81665 -73.65623 36057 ft 449 kts 304°
2026-05-08 12:47 21.85078 -73.71262 36061 ft 449 kts 304°
2026-05-08 12:48 21.88458 -73.76853 36060 ft 449 kts 304°
2026-05-08 12:48 21.91864 -73.82492 36057 ft 449 kts 304°
2026-05-08 12:49 21.95265 -73.88129 36052 ft 449 kts 303°
2026-05-08 12:49 21.98665 -73.93770 36049 ft 449 kts 303°
2026-05-08 12:50 22.02060 -73.99408 36048 ft 448 kts 303°
2026-05-08 12:50 22.05454 -74.05050 36055 ft 448 kts 303°
2026-05-08 12:51 22.10536 -74.13511 36054 ft 448 kts 303°
2026-05-08 12:52 22.13349 -74.18199 36050 ft 448 kts 303°
2026-05-08 12:52 22.18970 -74.27581 36057 ft 447 kts 303°
2026-05-08 12:53 22.22343 -74.33217 36049 ft 447 kts 303°
2026-05-08 12:53 22.25148 -74.37911 36061 ft 447 kts 303°
2026-05-08 12:54 22.28515 -74.43549 36058 ft 447 kts 303°
2026-05-08 12:54 22.31882 -74.49192 36050 ft 446 kts 303°
2026-05-08 12:55 22.35245 -74.54837 36059 ft 446 kts 303°
2026-05-08 12:55 22.38606 -74.60482 36061 ft 446 kts 303°
2026-05-08 12:56 22.41960 -74.66123 36057 ft 446 kts 303°
2026-05-08 12:56 22.45311 -74.71764 36054 ft 446 kts 303°
2026-05-08 12:57 22.48638 -74.77371 36063 ft 446 kts 303°
2026-05-08 12:57 22.51983 -74.83014 36062 ft 446 kts 303°
2026-05-08 12:58 22.55327 -74.88662 36056 ft 446 kts 303°
2026-05-08 12:58 22.58670 -74.94314 36048 ft 446 kts 303°
2026-05-08 12:59 22.62009 -74.99966 36063 ft 446 kts 303°
2026-05-08 12:59 22.65347 -75.05621 36061 ft 446 kts 303°
2026-05-08 13:00 22.68683 -75.11279 36055 ft 446 kts 303°
2026-05-08 13:00 22.72017 -75.16942 36060 ft 446 kts 303°
2026-05-08 13:01 22.75348 -75.22604 36059 ft 446 kts 303°
2026-05-08 13:01 22.78663 -75.28244 36056 ft 446 kts 303°
2026-05-08 13:02 22.81991 -75.33915 36062 ft 446 kts 303°
2026-05-08 13:02 22.85321 -75.39593 36060 ft 446 kts 303°
2026-05-08 13:03 22.88649 -75.45275 36059 ft 446 kts 303°
2026-05-08 13:03 22.91978 -75.50965 36068 ft 446 kts 303°
2026-05-08 13:04 22.95298 -75.56645 36060 ft 446 kts 303°
2026-05-08 13:04 22.98596 -75.62294 36068 ft 446 kts 303°
2026-05-08 13:05 23.01908 -75.67975 36061 ft 446 kts 303°
2026-05-08 13:05 23.05225 -75.73669 36062 ft 446 kts 303°
2026-05-08 13:06 23.08536 -75.79359 36066 ft 446 kts 303°
2026-05-08 13:06 23.11845 -75.85052 36059 ft 446 kts 303°
2026-05-08 13:07 23.15151 -75.90747 36062 ft 445 kts 303°
2026-05-08 13:07 23.18456 -75.96445 36060 ft 445 kts 303°
2026-05-08 13:08 23.21732 -76.02101 36061 ft 445 kts 302°
2026-05-08 13:08 23.25035 -76.07808 36063 ft 445 kts 302°
2026-05-08 13:09 23.28332 -76.13513 36056 ft 445 kts 302°
2026-05-08 13:09 23.31623 -76.19213 36059 ft 445 kts 302°
2026-05-08 13:10 23.34910 -76.24913 36060 ft 444 kts 302°
2026-05-08 13:10 23.38190 -76.30607 36053 ft 444 kts 302°
2026-05-08 13:11 23.41467 -76.36303 36048 ft 444 kts 302°
2026-05-08 13:11 23.44739 -76.41995 36056 ft 443 kts 302°
2026-05-08 13:12 23.47986 -76.47651 36064 ft 443 kts 302°
2026-05-08 13:12 23.51270 -76.53377 36060 ft 442 kts 302°
2026-05-08 13:13 23.54507 -76.59028 36059 ft 442 kts 302°
2026-05-08 13:13 23.57761 -76.64715 36056 ft 442 kts 302°
2026-05-08 13:14 23.61011 -76.70402 36054 ft 442 kts 302°
2026-05-08 13:14 23.64260 -76.76093 36062 ft 441 kts 302°
2026-05-08 13:15 23.67501 -76.81778 36061 ft 441 kts 302°
2026-05-08 13:15 23.70740 -76.87463 36064 ft 441 kts 302°
2026-05-08 13:16 23.73971 -76.93143 36057 ft 441 kts 302°
2026-05-08 13:16 23.77201 -76.98826 36059 ft 440 kts 302°
2026-05-08 13:17 23.80407 -77.04475 36059 ft 440 kts 302°
2026-05-08 13:17 23.83628 -77.10155 36058 ft 440 kts 302°
2026-05-08 13:18 23.86846 -77.15837 36060 ft 440 kts 301°
2026-05-08 13:18 23.90060 -77.21519 36064 ft 439 kts 301°
2026-05-08 13:19 23.93274 -77.27207 36063 ft 439 kts 301°
2026-05-08 13:19 23.96480 -77.32886 36061 ft 439 kts 301°
2026-05-08 13:20 23.99684 -77.38570 36059 ft 439 kts 301°
2026-05-08 13:20 24.02888 -77.44260 36059 ft 439 kts 301°
2026-05-08 13:21 24.06065 -77.49910 36064 ft 439 kts 301°
2026-05-08 13:21 24.09262 -77.55599 36066 ft 438 kts 301°
2026-05-08 13:22 24.12455 -77.61290 36062 ft 438 kts 301°
2026-05-08 13:22 24.15644 -77.66980 36061 ft 438 kts 301°
2026-05-08 13:23 24.18832 -77.72674 36064 ft 438 kts 301°
2026-05-08 13:23 24.22016 -77.78369 36060 ft 438 kts 301°
2026-05-08 13:24 24.25200 -77.84070 36061 ft 438 kts 301°
2026-05-08 13:24 24.28414 -77.89744 36062 ft 438 kts 302°
2026-05-08 13:25 24.31802 -77.95240 36065 ft 438 kts 303°
2026-05-08 13:25 24.35243 -78.00748 36065 ft 438 kts 303°
2026-05-08 13:26 24.38658 -78.06271 36066 ft 437 kts 303°
2026-05-08 13:26 24.42058 -78.11813 36063 ft 437 kts 303°
2026-05-08 13:27 24.45450 -78.17356 36064 ft 437 kts 303°
2026-05-08 13:27 24.48835 -78.22893 36070 ft 437 kts 303°
2026-05-08 13:28 24.52218 -78.28435 36067 ft 437 kts 303°
2026-05-08 13:28 24.55601 -78.33979 36067 ft 436 kts 303°
2026-05-08 13:29 24.58959 -78.39492 36066 ft 436 kts 303°
2026-05-08 13:29 24.62336 -78.45039 36064 ft 436 kts 303°
2026-05-08 13:30 24.65700 -78.50574 36068 ft 435 kts 303°
2026-05-08 13:30 24.69073 -78.56128 35689 ft 441 kts 303°
2026-05-08 13:31 24.70777 -78.58938 35071 ft 441 kts 303°
2026-05-08 13:31 24.72477 -78.61741 34385 ft 441 kts 303°
2026-05-08 13:31 24.74177 -78.64547 33572 ft 442 kts 303°
2026-05-08 13:31 24.75884 -78.67365 32772 ft 443 kts 303°
2026-05-08 13:32 24.77596 -78.70194 31964 ft 444 kts 302°
2026-05-08 13:32 24.79310 -78.73026 31133 ft 445 kts 302°
2026-05-08 13:32 24.81030 -78.75868 30358 ft 445 kts 302°
2026-05-08 13:32 24.82719 -78.78661 29619 ft 442 kts 302°
2026-05-08 13:33 24.84417 -78.81467 28955 ft 436 kts 302°
2026-05-08 13:33 24.86089 -78.84233 28314 ft 431 kts 302°
2026-05-08 13:33 24.87739 -78.86965 27710 ft 425 kts 302°
2026-05-08 13:33 24.89368 -78.89664 27111 ft 420 kts 302°
2026-05-08 13:34 24.90973 -78.92325 26525 ft 415 kts 302°
2026-05-08 13:34 24.92560 -78.94959 25944 ft 411 kts 302°
2026-05-08 13:34 24.94133 -78.97570 25366 ft 407 kts 303°
2026-05-08 13:34 24.95692 -79.00160 24784 ft 403 kts 303°
2026-05-08 13:35 24.97236 -79.02726 24198 ft 400 kts 303°
2026-05-08 13:35 24.98771 -79.05280 23630 ft 398 kts 303°
2026-05-08 13:35 25.00294 -79.07814 22951 ft 395 kts 303°
2026-05-08 13:35 25.01784 -79.10293 22354 ft 391 kts 303°
2026-05-08 13:36 25.03279 -79.12783 21717 ft 388 kts 303°
2026-05-08 13:36 25.04764 -79.15255 21094 ft 386 kts 303°
2026-05-08 13:36 25.06241 -79.17716 20525 ft 383 kts 303°
2026-05-08 13:36 25.07705 -79.20157 19955 ft 380 kts 303°
2026-05-08 13:37 25.09156 -79.22580 19406 ft 377 kts 303°
2026-05-08 13:37 25.10600 -79.24990 18846 ft 375 kts 303°
2026-05-08 13:37 25.12038 -79.27392 18282 ft 374 kts 303°
2026-05-08 13:37 25.13465 -79.29778 17678 ft 372 kts 303°
2026-05-08 13:38 25.14883 -79.32149 17111 ft 369 kts 303°
2026-05-08 13:38 25.16293 -79.34508 16551 ft 366 kts 303°
2026-05-08 13:38 25.17690 -79.36845 16064 ft 363 kts 303°
2026-05-08 13:38 25.19055 -79.39131 15924 ft 350 kts 303°
2026-05-08 13:39 25.20373 -79.41338 15618 ft 342 kts 303°
2026-05-08 13:39 25.21697 -79.43556 14995 ft 346 kts 303°
2026-05-08 13:39 25.23024 -79.45781 14481 ft 347 kts 302°
2026-05-08 13:39 25.24348 -79.48002 14009 ft 346 kts 302°
2026-05-08 13:40 25.25671 -79.50222 13496 ft 345 kts 302°
2026-05-08 13:40 25.26989 -79.52435 13028 ft 343 kts 302°
2026-05-08 13:40 25.27856 -79.53892 12718 ft 342 kts 302°
2026-05-08 13:40 25.29158 -79.56080 12255 ft 340 kts 302°
2026-05-08 13:41 25.30452 -79.58256 11795 ft 338 kts 303°
2026-05-08 13:41 25.31727 -79.60403 11344 ft 337 kts 303°
2026-05-08 13:41 25.33030 -79.62595 10837 ft 338 kts 303°
2026-05-08 13:41 25.34718 -79.65438 10494 ft 328 kts 303°
2026-05-08 13:42 25.35952 -79.67517 10323 ft 318 kts 303°
2026-05-08 13:42 25.37147 -79.69531 10194 ft 309 kts 303°
2026-05-08 13:42 25.37926 -79.70844 10104 ft 303 kts 303°
2026-05-08 13:42 25.39159 -79.72676 9915 ft 295 kts 316°
2026-05-08 13:43 25.40796 -79.74047 9527 ft 295 kts 326°
2026-05-08 13:43 25.42467 -79.75305 9195 ft 293 kts 326°
2026-05-08 13:43 25.44145 -79.76581 8893 ft 291 kts 326°
2026-05-08 13:43 25.45798 -79.77858 8619 ft 288 kts 325°
2026-05-08 13:44 25.47431 -79.79131 8347 ft 285 kts 325°
2026-05-08 13:44 25.49037 -79.80387 8082 ft 282 kts 325°
2026-05-08 13:44 25.50635 -79.81639 7821 ft 279 kts 325°
2026-05-08 13:44 25.52208 -79.82872 7563 ft 276 kts 325°
2026-05-08 13:45 25.53767 -79.84094 7312 ft 273 kts 325°
2026-05-08 13:45 25.55312 -79.85306 7062 ft 271 kts 325°
2026-05-08 13:45 25.56840 -79.86505 6814 ft 268 kts 325°
2026-05-08 13:45 25.58206 -79.87889 6542 ft 267 kts 304°
2026-05-08 13:46 25.59143 -79.89647 6298 ft 264 kts 300°
2026-05-08 13:46 25.60034 -79.91414 6052 ft 262 kts 299°
2026-05-08 13:46 25.60924 -79.93174 5804 ft 260 kts 299°
2026-05-08 13:46 25.61811 -79.94916 5559 ft 259 kts 299°
2026-05-08 13:47 25.62695 -79.96643 5320 ft 258 kts 299°
2026-05-08 13:47 25.63581 -79.98368 5083 ft 257 kts 299°
2026-05-08 13:47 25.64450 -80.00055 4851 ft 256 kts 299°
2026-05-08 13:47 25.65335 -80.01775 4549 ft 252 kts 299°
2026-05-08 13:48 25.66311 -80.03356 4231 ft 246 kts 307°
2026-05-08 13:48 25.67385 -80.04838 3859 ft 242 kts 308°
2026-05-08 13:48 25.68442 -80.06272 3493 ft 238 kts 309°
2026-05-08 13:48 25.69450 -80.07663 3163 ft 230 kts 308°
2026-05-08 13:49 25.70355 -80.09043 3018 ft 210 kts 301°
2026-05-08 13:49 25.71050 -80.10395 2953 ft 197 kts 299°
2026-05-08 13:49 25.71668 -80.11740 2840 ft 194 kts 296°
2026-05-08 13:49 25.72236 -80.13072 2676 ft 188 kts 296°
2026-05-08 13:50 25.72757 -80.14344 2493 ft 173 kts 295°
2026-05-08 13:50 25.73210 -80.15526 2327 ft 162 kts 294°
2026-05-08 13:50 25.73631 -80.16695 2362 ft 168 kts 293°
2026-05-08 13:50 25.74027 -80.17877 2168 ft 156 kts 292°
2026-05-08 13:51 25.74403 -80.18958 1863 ft 147 kts 295°
2026-05-08 13:51 25.74813 -80.19987 1638 ft 145 kts 297°
2026-05-08 13:51 25.75216 -80.21024 1471 ft 145 kts 295°
2026-05-08 13:51 25.75666 -80.22024 1261 ft 146 kts 301°
2026-05-08 13:52 25.76169 -80.22981 1047 ft 141 kts 301°
2026-05-08 13:52 25.76657 -80.23917 824 ft 140 kts 303°
2026-05-08 13:52 25.77158 -80.24825 645 ft 135 kts 302°
2026-05-08 13:52 25.77637 -80.25710 467 ft 132 kts 300°
2026-05-08 13:53 25.78075 -80.26582 316 ft 131 kts 297°
2026-05-08 13:53 25.78526 -80.27473 114 ft 133 kts 299°
2026-05-08 13:53 25.78979 -80.28350 20 ft 128 kts 300°
2026-05-08 13:53 25.79317 -80.29030 14 ft 68 kts 299°
2026-05-08 13:54 25.79458 -80.29326 16 ft 32 kts 288°
2026-05-08 13:54 25.79431 -80.29455 17 ft 10 kts 198°
2026-05-08 13:54 25.79366 -80.29446 18 ft 10 kts 144°
2026-05-08 13:54 25.79319 -80.29374 17 ft 13 kts 118°
2026-05-08 13:55 25.79273 -80.29280 14 ft 15 kts 118°
2026-05-08 13:55 25.79220 -80.29184 14 ft 14 kts 125°
2026-05-08 13:55 25.79115 -80.28986 11 ft 16 kts 118°
2026-05-08 13:56 25.79054 -80.28890 12 ft 15 kts 152°
2026-05-08 13:56 25.78956 -80.28887 14 ft 14 kts 218°
2026-05-08 13:56 25.78918 -80.28987 15 ft 14 kts 256°
2026-05-08 13:56 25.78906 -80.29089 15 ft 13 kts 266°
2026-05-08 13:57 25.78900 -80.29191 14 ft 14 kts 268°
2026-05-08 13:57 25.78896 -80.29303 15 ft 15 kts 267°
2026-05-08 13:57 25.78891 -80.29414 18 ft 14 kts 267°
2026-05-08 13:57 25.78886 -80.29521 19 ft 14 kts 267°
2026-05-08 13:58 25.78882 -80.29623 18 ft 13 kts 267°
2026-05-08 13:58 25.78877 -80.29738 18 ft 22 kts 267°
2026-05-08 13:58 25.78869 -80.29969 21 ft 37 kts 268°
2026-05-08 13:58 25.78857 -80.30271 16 ft 41 kts 266°
2026-05-08 13:59 25.78856 -80.30514 19 ft 22 kts 296°
2026-05-08 13:59 25.79000 -80.30559 15 ft 25 kts 356°
2026-05-08 13:59 25.79108 -80.30570 19 ft 9 kts 339°
2026-05-08 13:59 25.79127 -80.30610 15 ft 6 kts 263°
2026-05-08 14:00 25.79124 -80.30632 16 ft 0 kts 265°
2026-05-08 14:00 25.79123 -80.30640 16 ft 0 kts 264°
2026-05-08 14:00 25.79123 -80.30644 16 ft 0 kts 265°